Starlink 31377

operational
NORAD ID: 58938 Int'l Des: 2024-027 Owner: SPXS Country: US Constellation: starlink
LEOCIRCULAR

About Starlink 31377

Description loading...

Live Position

Loading 3D Globe...

Upcoming Passes

Altitude History

Altitude vs Time

uPlot chart will show altitude changes over time

Two-Line Element Set

1 58938U 24027H 25354.32720977 -.00000591 00000-0 -78258-5 0 9996
2 58938 53.1620 318.5306 0001115 85.4287 274.6841 15.30195534105172
Epoch: Dec 20, 2025 • Age: 11 hours

Current Status

Altitude 493.6 km
Velocity 7.62 km/s
Sub-Earth Point -51.07°S, 117.81°W
Launch Date Feb 10, 2024
Age 1.8 years
Type internet

Technical Details

Classification Payload
Mass 730.00 kg
Dry Mass 700.00 kg
Total Mass 730.00 kg
Length 0.30 m
Diameter 4.10 m
Span 29.00 m
Shape Box + pan
Manufacturer SPXS
Bus Type Starlink V2M
Phase Status In Orbit
Owner/State SPXS/US

Large Constellations

Loading constellations...